Regional Weather Roundup
Issued by NWS Upton, NY

Current Version | Previous Version | Text Only | Print | Product List | Glossary Off
Versions: 1 2 3 4 5 6 7 8 9 10 11 12 13 14 15 16 17 18 19 20 21 22 23 24 25 26 27 28 29 30 31 32 33 34 35 36 37 38 39 40 41 42 43 44 45 46 47 48 49 50
000 ASUS41 KOKX 191905 RWROKX REGIONAL WEATHER ROUNDUP NATIONAL WEATHER SERVICE NEW YORK NY 300 PM EDT SUN OCT 19 2014 NOTE: "FAIR" INDICATES FEW OR NO CLOUDS BELOW 12,000 FEET WITH NO SIGNIFICANT WEATHER AND/OR OBSTRUCTIONS TO VISIBILITY. NYZ071-072-176-178-NJZ106-104-192000- NEW YORK CITY METRO AREA CITY SKY/WX TMP DP RH WIND PRES REMARKS CENTRAL PARK SUNNY 52 26 36 NW12G22 29.94R LAGUARDIA APRT MOSUNNY 53 31 42 NW23G30 29.90R KENNEDY INTL MOSUNNY 56 26 31 NW22G28 29.90R NEWARK/LIBERTY MOSUNNY 54 25 32 NW21G33 29.93R BRNX BOT. GARD N/A N/A N/A N/A NW12 29.92R TETERBORO SUNNY 53 25 33 NW15G26 29.92R $$ NYZ177-179-078>081-192000- LONG ISLAND NEW YORK CITY SKY/WX TMP DP RH WIND PRES REMARKS FARMINGDALE MOSUNNY 57 32 38 NW15G25 29.88R ISLIP PTSUNNY 55 32 41 NW16 29.84R SHIRLEY NOT AVBL WESTHAMPTON MOSUNNY 55 33 43 NW18G28 29.86R MONTAUK POINT N/A 56 35 45 NW13G21 29.84R $$ NYZ052-065-067-192000- HUDSON VALLEY CITY SKY/WX TMP DP RH WIND PRES REMARKS WHITE PLAINS MOSUNNY 51 29 42 NW21G29 29.88R NEWBURGH MOSUNNY 50 30 46 N20G31 29.92S MONTGOMERY MOSUNNY 50 26 39 N15G23 29.93S POUGHKEEPSIE SUNNY 53 27 36 NW14 29.91R ALBANY PTSUNNY 47 28 47 NW18G29 29.93R $$ NJZ001-105-106-008-010-013-015-019>022-104-192000- NEW JERSEY CITY SKY/WX TMP DP RH WIND PRES REMARKS NEWARK/LIBERTY MOSUNNY 54 25 32 NW21G33 29.93R TETERBORO SUNNY 53 25 33 NW15G26 29.92R CALDWELL SUNNY 51 25 36 VRB6G17 29.94R MORRISTOWN MOSUNNY 52 27 37 NW8G36 29.95R SOMERVILLE SUNNY 53 25 33 NW16G28 29.94R SUSSEX SUNNY 51 27 39 N15G25 29.96R ANDOVER N/A 49 25 39 N9G23 29.95S TRENTON SUNNY 52 26 36 NW18G30 29.95R MILLVILLE SUNNY 55 31 39 W17G31 29.97S ATLANTIC CITY SUNNY 55 30 38 NW22G30 29.94R WRIGHTSTOWN MOSUNNY 53 30 40 NW17G25 29.93R TOMS RIVER SUNNY 54 28 37 NW14G24 29.93R BELMAR SUNNY 54 28 37 W18G26 29.91S $$ PAZ047>061-062-071-192000- EASTERN PENNSYLVANIA CITY SKY/WX TMP DP RH WIND PRES REMARKS PHILADELPHIA MOSUNNY 56 27 32 NW14G24 29.98S ALLENTOWN SUNNY 51 26 37 NW16G23 29.98F SCRANTON MOSUNNY 49 27 42 NW13G23 30.00S $$ CTZ002-004>006-009-010-012-RIZ004-006-007-MAZ004-011-015-192000- SOUTHERN NEW ENGLAND IN CT CITY SKY/WX TMP DP RH WIND PRES REMARKS BRADLEY INTL PTSUNNY 51 29 42 NW17G26 29.85R HARTFORD CLOUDY 52 29 41 NW15G25 29.87R DANBURY MOSUNNY 52 28 39 NW14G23 29.88R WTRBRY/OXFORD MOSUNNY 48 27 43 N15G30 29.86R BRIDGEPORT MOSUNNY 56 31 38 NW15G24 29.86R MERIDEN SUNNY 53 27 36 N18G24 29.86R NEW HAVEN MOSUNNY 56 28 34 NW17G28 29.86R CHESTER FAIR 52 28 40 NW13G23 29.85R GROTON PTSUNNY 54 33 45 N17 29.83R WILLIMANTIC CLOUDY 52 31 44 NW8 29.84R IN RI CITY SKY/WX TMP DP RH WIND PRES REMARKS PROVIDENCE PTSUNNY 53 34 48 NW15G22 29.81R BLOCK ISLAND PTSUNNY 55 37 50 NW12G23 29.81R WESTERLY CLOUDY 53 32 44 NW10G21 29.83R IN MA CITY SKY/WX TMP DP RH WIND PRES REMARKS BOSTON CLOUDY 52 32 46 NW16G23 29.80R WORCESTER CLOUDY 47 30 51 NW16 29.80R WESTFIELD CLOUDY 50 29 44 NW18G24 29.85R PROVINCETOWN PTSUNNY 54 37 54 NW17 29.77R NANTUCKET CLOUDY 53 38 56 N16 29.76R $$ ANZ330-335-338-340-345-350-353-355-192000- COASTAL MARINE OBSERVATIONS STATION/POSITION TIME SKY/WX TEMP WIND PRES VSBY WAVE AIR SEA DIR/SP/G HT/PER (UTC) (F) (DEG/KT/KT) (MB) (MI) (FT/S) NY HARB ENTRANCE NOT AVBL 4S FIRE IS 1900 64 N/A 4/13 20S FIRE ISLAND 1900 54 64 310/ 21/ 29 1011.1 5/ 6 23SW MTP 1900 N/A 5/ 5 HUDSON CANYON 1900 55 66 320/ 23/ 27 1010.6 8/ 7 EXECUTION ROCKS 1900 55 64 330/ 19/ 27 N/A WESTERN LI SOUND 1900 54 310/ 19/ 25 N/A 2/ 3 CENTRAL LI SOUND 1800 53 65 310/ 21/ 27 N/A 3/ 4 EASTERN LI SOUND 1800 54 64 320/ 16/ 21 N/A ROBBINS REEF 1900 51 310/ 22/ 28 1011.4 $$ >>>>>>>>>>>>>>>>>>>>>>>>>>>> KEY <<<<<<<<<<<<<<<<<<<<<<<<<<< > < > SKY/WX - SKY CONDITION/PRESENT WEATHER < > TMP - TEMPERATURE IN FAHRENHEIT < > DP - DEWPOINT IN FAHRENHEIT < > RH - RELATIVE HUMIDITY IN PERCENT < > WIND - DIRECTION AND SPEED IN MPH < > PRES - MEAN SEA LEVEL PRESSURE IN INCHES OF HG < > WCI - WIND CHILL INDEX < > VSB - VISIBILITY IN MILES < > HX - HEAT INDEX < > TC - TEMPERATURE IN CELSIUS < > VRB - VARIABLE WIND DIRECTION < > < >>>>>>>>>>>>>>>>>>>>>>>>>>>> KEY <<<<<<<<<<<<<<<<<<<<<<<<<<<

USA.gov is the U.S. government's official web portal to all federal, state and local government web resources and services.